Location: Newark
(48.4472°N, 1.4892°E)
Time: 17:08:24
(UTC+00:00)

Transit 2A - All Passes

Search period start: 13 November 2019 00:00
Search period end: 23 November 2019 00:00
Orbit: 601 x 957 km, 66.7° (Epoch: 12 November)

Date Brightness Start Highest point End Pass type
(mag) Time Alt. Az. Time Alt. Az. Time Alt. Az.
13 Nov - 11:56:33 10° SE 11:58:14 12° ESE 11:59:52 10° E daylight
13 Nov - 13:35:38 10° SSW 13:40:43 78° ESE 13:45:21 10° NE daylight
13 Nov - 15:20:34 10° W 15:24:20 22° NW 15:27:53 10° NNE daylight
13 Nov - 20:35:53 10° NNW 20:39:34 26° NE 20:43:16 10° E visible
13 Nov - 22:18:43 10° NW 22:22:56 50° WSW 22:27:14 10° SSE night (unlit)
14 Nov - 13:01:40 10° SSW 13:06:38 54° ESE 13:11:10 10° NE daylight
14 Nov - 14:45:48 10° W 14:50:00 28° NW 14:53:58 10° NNE daylight
14 Nov - 20:01:59 10° NNW 20:05:14 20° NE 20:08:29 10° E visible
14 Nov - 21:44:30 10° NW 21:48:52 75° WSW 21:53:18 10° SSE night (unlit)
15 Nov - 12:27:54 10° S 12:32:35 37° ESE 12:36:54 10° NE daylight
15 Nov - 14:11:10 10° WSW 14:15:45 37° NW 14:20:00 10° NNE daylight
15 Nov - 15:58:52 10° NW 16:00:10 11° NNW 16:01:28 10° N daylight
15 Nov - 19:28:08 10° N 19:30:51 16° NNE 19:33:33 10° ENE visible
15 Nov - 21:10:23 10° NNW 21:14:45 75° NE 21:19:11 10° SE night (unlit)
15 Nov - 22:54:58 10° WNW 22:57:19 14° WSW 22:59:41 10° SW night (unlit)
16 Nov - 11:54:24 10° S 11:58:35 26° ESE 12:02:29 10° ENE daylight
16 Nov - 13:36:41 10° SW 13:41:31 50° NW 13:45:59 10° NNE daylight
16 Nov - 15:23:25 10° WNW 15:25:42 13° NNW 15:27:55 10° N daylight
16 Nov - 18:54:24 10° N 18:56:24 13° NNE 18:58:25 10° NE visible
16 Nov - 20:36:19 10° NNW 20:40:35 51° NE 20:44:55 10° SE visible
16 Nov - 22:20:05 10° WNW 22:23:23 21° WSW 22:26:45 10° SSW night (unlit)
17 Nov - 11:21:13 10° SSE 11:24:37 18° ESE 11:27:51 10° ENE daylight
17 Nov - 13:02:21 10° SW 13:07:21 70° NW 13:11:56 10° NNE daylight
17 Nov - 14:48:16 10° WNW 14:51:16 16° NNW 14:54:09 10° N daylight
17 Nov - 18:20:58 10° N 18:21:55 11° NNE 18:22:52 10° NE visible
17 Nov - 20:02:18 10° NNW 20:06:22 37° NE 20:10:28 10° ESE visible
17 Nov - 21:45:34 10° NW 21:49:25 31° WSW 21:53:22 10° S night (unlit)
18 Nov - 10:48:41 10° SE 10:50:42 12° ESE 10:52:40 10° E daylight
18 Nov - 12:28:11 10° SSW 12:33:13 83° ESE 12:37:50 10° NE daylight
18 Nov - 14:13:18 10° W 14:16:53 20° NW 14:20:18 10° NNE daylight
18 Nov - 19:28:20 10° NNW 19:32:06 27° NE 19:35:53 10° E visible
18 Nov - 21:11:14 10° NW 21:15:24 46° WSW 21:19:41 10° S night (unlit)
19 Nov - 11:54:12 10° SSW 11:59:08 58° ESE 12:03:40 10° NE daylight
19 Nov - 13:38:29 10° W 13:42:33 26° NW 13:46:23 10° NNE daylight
19 Nov - 18:54:25 10° NNW 18:57:47 21° NE 19:01:09 10° E visible
19 Nov - 20:37:00 10° NW 20:41:21 69° WSW 20:45:47 10° SSE visible
20 Nov - 11:20:24 10° S 11:25:04 40° ESE 11:29:24 10° NE daylight
20 Nov - 13:03:50 10° WSW 13:08:16 34° NW 13:12:26 10° NNE daylight
20 Nov - 14:51:54 10° NNW 14:52:46 10° NNW 14:53:37 10° N daylight
20 Nov - 18:20:34 10° N 18:23:24 17° NNE 18:26:14 10° ENE visible
20 Nov - 20:02:52 10° NNW 20:07:14 81° NE 20:11:43 10° SE visible
20 Nov - 21:47:40 10° W 21:49:46 13° WSW 21:51:52 10° SW night (unlit)
21 Nov - 10:46:49 10° S 10:51:04 28° ESE 10:55:01 10° NE daylight
21 Nov - 12:29:19 10° WSW 12:34:02 46° NW 12:38:26 10° NNE daylight
21 Nov - 14:16:14 10° NW 14:18:16 13° NNW 14:20:15 10° N daylight
21 Nov - 17:46:48 10° N 17:48:58 13° NNE 17:51:09 10° ENE visible
21 Nov - 19:28:48 10° NNW 19:33:05 56° NE 19:37:28 10° SE visible
21 Nov - 21:12:40 10° WNW 21:15:50 20° WSW 21:19:05 10° SSW night (unlit)
22 Nov - 10:13:34 10° SSE 10:17:06 19° ESE 10:20:26 10° ENE daylight
22 Nov - 11:54:58 10° SW 11:59:51 65° NW 12:04:23 10° NNE daylight
22 Nov - 13:41:02 10° WNW 13:43:49 15° NNW 13:46:31 10° N daylight
22 Nov - 17:13:16 10° N 17:14:30 11° NNE 17:15:43 10° NE visible
22 Nov - 18:54:46 10° NNW 18:58:53 39° NE 19:03:03 10° ESE visible
22 Nov - 20:38:06 10° NW 20:41:53 29° WSW 20:45:45 10° S visible
